Weather History for KEWR - February, 2013

Change the Weather History Date:

Monday, February 11, 2013

  Actual Average Record
Temperature  
Mean Temperature 38 °F 34 °F  
Max Temperature 44 °F 41 °F 66 °F (1960)
Min Temperature 31 °F 26 °F -1 °F (1979)
Degree Days  
Heating Degree Days 27 31  
Month to date heating degree days 389 352  
Since 1 July heating degree days 2910 3136  
Cooling Degree Days 0 0  
Month to date cooling degree days 0 0  
Year to date cooling degree days 0 0  
Moisture  
Dew Point 36 °F    
Average Humidity 82    
Maximum Humidity 100    
Minimum Humidity 63    
Precipitation  
Precipitation 0.42 in 0.10 in 2.06 in (1994)
Month to date precipitation 1.73 1.11  
Year to date precipitation 4.22 4.65  
Snow  
Snow 0.00 in 0.30 in 18.00 in (1994)
Month to date snowfall 10.8 3.7  
Since 1 July snowfall 20.7 17.4  
Snow Depth 5.00 in    
Sea Level Pressure  
Sea Level Pressure 29.94 in    
Wind  
Wind Speed 3 mph (NNW)    
Max Wind Speed 10 mph    
Max Gust Speed 17 mph    
Visibility 4 miles    
Events Fog , Rain    
T = Trace of Precipitation, MM = Missing Value Source: NWS Daily Summary

Daily Weather History Graph

Daily Weather History Graph

Search for Another Location

Airport or City:

Trip Planner

Search our weather history database for the weather conditions in past years. The results will help you decide how hot, cold, wet, or windy it might be!

Date:

Astronomy

Feb. 11, 2013 Rise Set
Actual Time 6:55 AM EST 5:27 PM EST
Civil Twilight 6:27 AM EST 5:55 PM EST
Nautical Twilight 5:54 AM EST 6:27 PM EST
Astronomical Twilight 5:23 AM EST 6:59 PM EST
Moon 7:17 AM EST (2/11) 7:22 PM EST (2/11)
Length of Visible Light 11h 28m
Length of Day
10h 31m
Waxing Crescent, 3% of the Moon is Illuminated
Feb 11
Waxing Crescent
Feb 17
First Quarter
Feb 25
Full
Mar 4
Last Quarter
Mar 11
New

Hourly Weather History & Observations

Time (EST) Temp. Windchill Dew Point Humidity Pressure Visibility Wind Dir Wind Speed Gust Speed Precip Events Conditions
12:51 AM 30.9 °F - 21.9 °F 69% 30.32 in 10.0 mi Calm Calm - N/A   Overcast
1:51 AM 30.9 °F - 21.0 °F 67% 30.30 in 10.0 mi Calm Calm - N/A   Overcast
2:51 AM 32.0 °F - 23.0 °F 69% 30.27 in 10.0 mi Calm Calm - N/A   Overcast
3:51 AM 33.1 °F - 26.1 °F 75% 30.23 in 9.0 mi Calm Calm - 0.00 in Rain Light Rain
4:51 AM 32.0 °F 28.7 °F 27.0 °F 82% 30.19 in 10.0 mi NNE 3.5 mph - 0.00 in   Overcast
5:51 AM 34.0 °F 31.0 °F 28.9 °F 82% 30.16 in 8.0 mi NNE 3.5 mph - 0.01 in Rain Light Rain
6:26 AM 35.6 °F - 33.8 °F 93% 30.14 in 4.0 mi Calm Calm - 0.04 in Rain Light Rain
6:51 AM 35.1 °F - 33.1 °F 92% 30.12 in 4.0 mi Calm Calm - 0.06 in Rain Light Rain
7:46 AM 37.4 °F - 37.4 °F 100% 30.07 in 3.0 mi Calm Calm - 0.06 in Rain Light Rain
7:51 AM 37.0 °F 34.5 °F 36.0 °F 96% 30.06 in 3.0 mi NNE 3.5 mph - 0.07 in Rain Light Rain
7:57 AM 37.4 °F 32.8 °F 35.6 °F 93% 30.06 in 2.0 mi NNE 5.8 mph - 0.01 in   Overcast
8:14 AM 37.4 °F 33.8 °F 35.6 °F 93% 30.04 in 2.0 mi NE 4.6 mph - 0.05 in Rain Light Rain
8:22 AM 37.4 °F 32.8 °F 37.4 °F 100% 30.03 in 1.0 mi NNE 5.8 mph - 0.07 in Rain Light Rain
8:44 AM 37.4 °F 31.4 °F 37.4 °F 100% 30.03 in 0.5 mi NNW 8.1 mph - 0.14 in Rain Rain
8:51 AM 37.9 °F 32.7 °F 37.0 °F 97% 30.02 in 0.5 mi North 6.9 mph - 0.17 in Rain Rain
9:28 AM 35.6 °F 30.7 °F 35.6 °F 100% 30.00 in 1.0 mi NNE 5.8 mph - 0.06 in Rain Light Rain
9:42 AM 35.6 °F 30.7 °F 35.6 °F 100% 30.00 in 1.0 mi North 5.8 mph - 0.07 in Rain Light Rain
9:51 AM 36.0 °F 30.3 °F 36.0 °F 100% 29.99 in 1.0 mi NNE 6.9 mph - 0.07 in Rain Light Rain
10:51 AM 36.0 °F 31.1 °F 36.0 °F 100% 29.96 in 0.5 mi NNE 5.8 mph - 0.02 in   Light Drizzle
11:51 AM 37.0 °F 34.5 °F 36.0 °F 96% 29.93 in 0.5 mi North 3.5 mph - 0.01 in Rain Light Rain
12:51 PM 39.0 °F - 39.0 °F 100% 29.86 in 0.5 mi Calm Calm - 0.01 in Fog Light Drizzle
1:51 PM 39.9 °F - 39.0 °F 97% 29.82 in 0.5 mi Calm Calm - 0.00 in Fog Light Drizzle
2:51 PM 39.0 °F 35.7 °F 39.0 °F 100% 29.79 in 0.5 mi SW 4.6 mph - 0.00 in   Light Drizzle
3:51 PM 41.0 °F - 41.0 °F 100% 29.74 in 0.5 mi Calm Calm - 0.00 in   Light Drizzle
4:51 PM 41.0 °F 39.0 °F 39.9 °F 96% 29.72 in 0.5 mi WSW 3.5 mph - 0.00 in   Light Drizzle
5:51 PM 42.1 °F - 41.0 °F 96% 29.70 in 0.5 mi Calm Calm - 0.00 in   Light Drizzle
6:51 PM 42.1 °F - 41.0 °F 96% 29.68 in 0.5 mi Calm Calm - 0.00 in   Light Drizzle
7:51 PM 43.0 °F - 43.0 °F 100% 29.67 in 0.5 mi Calm Calm - 0.00 in   Light Drizzle
8:51 PM 42.1 °F 40.2 °F 42.1 °F 100% 29.67 in 0.5 mi WNW 3.5 mph - 0.00 in Fog Light Drizzle
9:41 PM 42.8 °F 38.0 °F 42.8 °F 100% 29.69 in 1.5 mi NW 8.1 mph - 0.00 in   Light Drizzle
9:51 PM 43.0 °F 37.7 °F 42.1 °F 97% 29.70 in 1.5 mi WNW 9.2 mph 17.3 mph 0.00 in   Overcast
10:07 PM 42.8 °F 39.3 °F 42.8 °F 100% 29.70 in 3.0 mi West 5.8 mph - N/A   Mostly Cloudy
10:40 PM 42.8 °F 37.5 °F 41.0 °F 93% 29.71 in 7.0 mi WNW 9.2 mph - N/A   Mostly Cloudy
10:51 PM 44.1 °F 39.0 °F 42.1 °F 93% 29.71 in 9.0 mi WNW 9.2 mph - N/A   Mostly Cloudy
11:07 PM 44.6 °F 40.2 °F 42.8 °F 93% 29.72 in 10.0 mi WNW 8.1 mph - N/A   Overcast
11:43 PM 44.6 °F 42.2 °F 41.0 °F 87% 29.73 in 10.0 mi WNW 4.6 mph - N/A   Mostly Cloudy
11:51 PM 44.1 °F 40.8 °F 41.0 °F 89% 29.73 in 10.0 mi WNW 5.8 mph - N/A   Mostly Cloudy